Wind_Speed
19 19 19 19 18 17 16 14 13 11 9 8 6 5 4 5 5 4 4 3 4 3 3 4 4 5 6 7 7 10 11 16 6 8 7 2 1 7 5 8 3 3 2 5 5
21 21 21 21 20 20 19 18 17 15 13 11 9 7 6 5 6 6 4 5 4 3 2 3 6 2 2 4 8 8 15 14 10 5 3 4 7 7 8 10 8 11 11 14 10
20 21 23 23 23 22 22 21 20 19 17 15 13 11 8 5 6 7 6 6 4 3 1 4 5 5 6 6 11 11 16 20 13 9 11 11 9 9 10 11 7 9 10 13 15
18 20 22 23 24 24 24 24 23 22 21 19 17 14 11 7 2 10 15 10 5 2 2 3 2 5 7 9 9 15 17 16 16 15 15 17 15 18 16 17 14 8 11 9 14
24 22 22 22 23 24 25 26 25 24 23 22 21 19 15 14 8 18 14 9 8 6 4 1 8 8 11 10 12 16 15 17 17 18 19 19 20 23 24 21 20 16 14 17 15
25 27 25 25 24 23 24 24 25 25 25 24 24 22 21 19 18 24 19 15 13 10 8 6 9 9 16 13 13 14 15 17 18 19 18 19 22 21 26 26 27 21 23 21 22
30 28 28 27 26 26 23 24 24 24 24 25 25 26 26 23 23 23 20 20 17 15 13 9 12 13 10 12 10 15 20 19 20 21 16 14 21 20 21 13 28 24 24 22 24
36 30 31 27 28 27 28 26 26 25 24 24 24 25 31 23 26 26 25 21 20 19 18 16 13 16 16 17 19 19 21 23 16 6 12 13 19 8 5 7 13 20 19 22 26
38 36 34 32 31 31 29 30 29 27 28 27 24 27 31 29 27 27 28 27 23 21 21 18 18 16 15 18 20 16 22 19 17 11 9 12 21 17 15 17 18 20 21 21 24
38 43 38 35 33 31 32 31 32 32 34 35 33 31 26 21 17 21 17 28 27 24 18 21 21 21 19 19 26 21 23 22 18 14 15 15 20 21 21 20 19 20 21 22 25
31 31 35 36 35 34 33 33 34 36 37 36 27 32 19 17 26 24 18 14 18 27 24 21 25 25 22 22 25 26 25 27 26 22 23 24 27 26 21 20 20 18 19 23 17
27 27 28 28 30 33 34 32 31 32 36 38 37 36 35 31 27 27 14 18 15 21 22 25 35 27 24 26 26 28 30 28 28 26 26 27 28 27 24 25 25 20 17 14 15
24 24 24 24 25 25 27 25 25 24 33 43 39 41 39 37 40 39 31 25 21 24 24 30 34 25 29 30 29 31 32 31 30 27 29 29 33 31 27 29 18 17 14 15 19
21 22 21 21 21 20 21 19 19 18 17 35 37 40 36 34 45 36 34 32 30 33 28 32 29 30 32 36 32 33 28 30 29 28 26 24 26 29 20 13 20 17 14 12 13
18 18 18 18 17 15 16 14 12 11 5 11 11 18 18 23 27 25 24 27 37 36 32 40 35 34 34 37 33 35 28 26 26 28 29 30 21 27 23 25 25 23 19 15 14
16 17 17 17 17 15 13 10 7 1 9 5 7 10 16 18 23 24 24 23 26 33 39 41 38 36 37 36 35 32 32 29 28 26 21 31 26 36 31 30 28 20 25 20 20
16 17 16 15 13 11 10 7 2 8 4 6 10 13 17 19 20 21 23 25 24 26 36 38 44 42 38 38 35 35 31 23 20 19 14 31 31 40 33 28 27 18 26 24 24
12 12 11 10 8 7 6 5 10 4 12 18 16 17 16 14 16 20 22 20 24 29 34 32 32 39 36 42 40 37 32 28 24 16 17 34 34 36 31 26 14 14 15 22 21
14 13 14 13 12 11 11 14 7 5 6 12 15 17 19 19 21 20 22 24 26 25 37 36 40 42 41 30 43 44 42 39 36 36 22 35 40 33 21 14 21 20 16 21 22
15 14 16 13 13 14 17 20 12 9 14 15 19 15 20 18 19 19 19 22 23 19 12 24 33 38 49 45 37 23 28 40 41 22 23 27 37 34 36 25 21 29 32 31 27
16 15 17 15 16 18 23 22 20 19 17 19 20 22 22 23 22 25 24 22 15 23 19 15 16 30 29 42 34 31 31 33 35 37 16 19 29 39 37 29 27 30 33 34 29
17 15 19 19 17 18 23 25 12 19 18 18 20 22 23 22 25 28 27 25 24 23 25 17 14 22 27 35 35 31 39 33 22 13 33 33 29 35 32 35 18 13 29 26 32
19 20 22 20 18 18 19 20 20 18 18 21 24 22 24 27 28 25 27 26 26 24 18 20 6 13 22 26 28 35 32 49 37 28 35 20 33 38 36 40 36 31 25 33 35
19 17 22 23 24 24 19 20 22 20 24 21 21 21 24 29 27 31 30 25 23 22 27 26 19 18 25 27 30 29 29 34 40 39 30 33 41 45 42 39 32 26 24 29 38
23 21 19 12 17 17 16 19 21 20 18 21 27 27 24 25 25 27 30 30 26 23 22 26 25 21 33 36 31 35 35 37 36 42 44 54 41 41 38 39 43 43 30 32 40
26 25 20 20 19 19 21 23 23 24 23 26 29 26 25 30 26 25 20 18 18 20 25 28 25 19 37 38 26 28 42 42 40 41 38 46 51 58 48 40 37 40 31 33 39
25 26 26 26 18 19 20 23 25 22 24 25 27 28 28 25 25 24 30 24 21 19 19 21 14 17 38 25 23 29 45 40 43 44 45 46 58 48 49 45 35 43 32 29 38
Wind_Direction
245 244 244 245 246 245 245 247 249 250 251 258 266 288 314 344 346 332 327 311 326 300 236 212 198 184 192 200 257 255 278 272 264 264 90 104 315 258 282 250 271 192 341 179 304
249 251 251 249 248 249 250 250 250 252 254 257 259 265 286 317 349 313 357 334 320 294 241 162 7 300 260 291 248 240 251 271 352 315 320 282 299 271 275 257 243 238 226 266 290
264 259 256 255 256 256 254 253 254 256 256 257 259 261 266 293 335 249 298 304 325 308 250 182 233 232 282 248 250 257 252 270 295 304 286 284 259 269 278 260 263 267 260 227 290
278 275 270 266 261 260 261 260 258 257 258 259 258 257 257 251 11 272 261 273 281 289 237 165 213 281 277 272 270 263 263 273 284 276 279 279 274 267 267 260 246 283 251 271 271
275 280 280 278 273 268 265 264 263 263 261 261 260 257 252 239 260 251 254 262 265 265 263 257 278 278 276 272 274 268 276 277 275 276 275 277 270 269 266 261 262 254 249 257 254
273 276 276 281 281 277 272 271 268 266 266 264 263 260 255 245 252 259 257 261 264 263 259 273 267 269 267 270 271 264 273 273 274 273 272 273 276 273 275 261 264 254 249 245 263
263 270 270 276 280 275 277 274 274 272 271 271 268 265 257 252 253 258 258 261 260 259 258 266 269 259 265 287 289 275 280 286 280 269 268 264 278 285 305 259 250 250 250 250 250
255 263 264 269 272 274 271 274 275 275 274 273 274 275 268 262 261 258 260 258 258 256 256 244 255 261 259 268 277 277 281 284 285 222 236 257 280 306 320 270 265 261 264 254 252
253 261 263 259 263 268 269 273 272 273 272 270 274 279 285 277 269 261 257 258 257 258 256 253 256 259 268 269 276 269 266 267 272 237 241 258 276 270 275 285 275 266 257 260 249
254 257 265 265 261 260 263 269 268 269 270 269 269 282 286 282 258 265 264 256 255 254 249 254 260 262 256 252 255 263 264 266 254 260 266 274 273 285 288 283 277 280 280 265 266
260 264 265 267 269 266 264 266 266 268 265 263 263 264 257 289 271 268 280 261 268 247 242 245 246 245 250 252 259 267 271 277 281 288 288 280 281 283 281 276 278 282 271 272 263
262 264 264 265 267 267 273 274 272 268 265 267 263 262 268 259 259 262 242 258 258 255 247 243 244 247 254 256 260 264 270 273 270 274 274 276 278 283 276 267 266 274 262 259 253
263 265 268 270 270 272 274 275 275 277 277 265 265 268 268 261 259 261 259 249 255 253 248 244 250 252 249 254 256 260 264 267 272 279 277 281 277 279 289 274 255 248 254 242 245
267 270 273 274 276 279 278 282 286 290 295 279 271 266 262 258 257 262 260 252 243 247 245 249 253 250 252 253 249 259 260 262 267 270 269 267 279 284 281 272 252 240 242 248 253
265 268 271 273 276 276 282 288 296 308 291 281 273 246 258 237 273 256 268 261 248 243 242 245 247 249 253 251 252 257 266 263 270 278 278 262 265 271 268 269 266 235 226 230 234
262 265 268 270 272 277 279 283 289 227 248 287 273 233 244 247 255 265 247 254 250 249 246 247 250 249 251 254 254 257 260 257 265 259 266 261 262 269 263 269 269 241 224 228 223
259 261 264 265 269 268 271 259 230 226 291 303 275 272 265 267 268 258 259 252 248 249 248 246 248 247 245 253 256 249 249 253 250 245 249 258 252 254 266 261 261 271 214 230 225
246 246 247 246 245 241 233 211 228 243 252 277 301 292 276 281 280 264 257 253 247 249 265 259 256 250 248 244 249 251 242 244 247 243 250 249 245 252 262 252 238 246 246 227 215
245 246 249 245 242 239 226 214 223 261 288 294 300 299 287 280 274 272 266 262 256 254 261 258 261 262 262 262 240 242 244 245 248 258 259 270 273 270 268 249 257 251 242 229 219
249 253 251 251 247 241 231 234 235 253 278 288 284 280 288 294 301 295 279 259 269 276 301 283 289 263 255 255 258 266 266 232 243 248 247 248 255 260 265 266 248 260 242 226 216
251 250 249 244 241 238 236 249 263 267 275 271 277 278 281 286 284 283 283 281 298 295 319 316 278 274 264 264 267 267 263 259 244 242 240 244 245 249 256 269 280 279 225 226 225
251 249 253 250 246 245 253 259 266 258 261 269 268 272 278 284 280 274 273 271 276 312 321 312 308 281 265 253 257 267 259 261 268 268 272 266 244 245 250 247 262 277 241 250 226
249 246 248 249 244 255 260 263 265 271 273 271 267 265 271 275 277 273 273 272 277 290 292 311 322 319 273 265 262 259 253 255 269 261 257 277 272 254 257 254 271 274 262 223 213
255 254 266 259 255 252 257 264 266 264 271 276 278 274 276 274 269 274 272 272 269 273 284 290 286 260 271 274 288 297 275 251 247 255 266 271 264 260 261 263 268 267 251 237 224
251 257 260 268 284 279 263 266 274 275 265 267 269 267 271 277 279 277 276 277 271 267 263 270 273 276 272 273 285 295 289 277 270 247 242 256 263 266 260 270 267 275 266 235 232
252 255 260 259 252 256 272 271 273 273 267 265 264 267 269 267 274 282 302 272 269 263 257 258 265 281 287 278 280 293 257 250 257 258 255 251 260 260 264 256 269 274 243 213 237
261 262 263 261 263 262 262 268 272 274 268 263 266 267 267 269 277 281 271 275 267 279 282 271 286 283 277 291 303 286 256 264 262 258 256 258 252 265 255 257 282 265 220 241 245
Height
3156 3157 3157 3158 3160 3161 3161 3162 3162 3163 3163 3164 3164 3164 3164 3164 3164 3163 3163 3164 3163 3164 3163 3164 3165 3166 3166 3168 3170 3172 3172 3165 3167 3166 3167 3167 3168 3169 3169 3169 3170 3170 3171 3166 3168
3153 3154 3155 3156 3157 3158 3160 3161 3161 3162 3163 3163 3163 3163 3164 3164 3164 3163 3164 3163 3164 3164 3164 3164 3166 3166 3168 3169 3171 3171 3170 3166 3167 3166 3165 3166 3168 3168 3169 3168 3168 3167 3168 3165 3166
3151 3151 3152 3154 3155 3156 3157 3158 3159 3160 3161 3162 3162 3163 3163 3163 3164 3162 3164 3164 3163 3163 3163 3163 3165 3166 3168 3169 3170 3169 3167 3164 3164 3165 3164 3164 3165 3167 3167 3166 3167 3168 3166 3163 3164
3149 3150 3150 3152 3153 3154 3155 3156 3156 3158 3159 3160 3161 3161 3162 3163 3166 3163 3163 3163 3163 3163 3163 3163 3165 3167 3168 3169 3170 3167 3164 3163 3163 3163 3163 3162 3162 3163 3164 3163 3162 3166 3166 3163 3162
3146 3147 3148 3149 3150 3151 3152 3153 3154 3155 3156 3157 3158 3159 3161 3161 3163 3159 3161 3161 3162 3162 3162 3163 3166 3167 3167 3167 3167 3166 3164 3162 3160 3160 3158 3158 3157 3158 3159 3160 3159 3160 3162 3161 3163
3141 3143 3144 3146 3147 3148 3149 3150 3151 3152 3153 3154 3155 3156 3157 3159 3157 3156 3158 3160 3160 3160 3161 3162 3165 3166 3163 3164 3164 3163 3162 3159 3157 3156 3154 3154 3153 3154 3150 3154 3154 3155 3156 3157 3157
3137 3138 3140 3141 3143 3144 3146 3146 3147 3148 3149 3150 3150 3151 3152 3155 3154 3154 3155 3156 3158 3158 3159 3162 3162 3163 3163 3162 3162 3160 3159 3156 3154 3152 3152 3153 3149 3147 3145 3147 3148 3151 3150 3152 3153
3132 3134 3135 3136 3138 3139 3141 3142 3143 3145 3146 3146 3147 3146 3144 3151 3149 3151 3152 3153 3154 3155 3156 3157 3158 3158 3159 3159 3157 3158 3157 3153 3149 3148 3149 3150 3146 3145 3145 3145 3145 3146 3145 3146 3147
3125 3127 3128 3130 3132 3134 3136 3137 3138 3140 3141 3141 3143 3142 3141 3142 3146 3146 3148 3149 3150 3151 3152 3153 3154 3154 3157 3157 3156 3154 3152 3150 3148 3146 3147 3146 3144 3142 3142 3143 3142 3142 3141 3141 3141
3118 3120 3121 3124 3126 3128 3130 3132 3132 3134 3134 3136 3139 3141 3142 3140 3142 3141 3143 3144 3146 3148 3150 3150 3150 3150 3151 3154 3151 3149 3146 3145 3145 3146 3143 3141 3139 3140 3139 3138 3138 3136 3136 3136 3135
3112 3113 3116 3118 3119 3120 3124 3127 3128 3128 3127 3131 3134 3132 3136 3137 3136 3138 3140 3140 3141 3142 3144 3146 3147 3145 3148 3149 3149 3148 3145 3142 3140 3141 3140 3138 3136 3135 3135 3134 3133 3132 3132 3131 3129
3107 3109 3112 3112 3114 3115 3116 3119 3120 3122 3119 3121 3124 3123 3128 3133 3129 3132 3140 3138 3139 3138 3141 3143 3135 3142 3144 3144 3144 3144 3141 3139 3139 3139 3139 3134 3131 3129 3130 3128 3128 3127 3126 3127 3127
3104 3105 3106 3107 3109 3111 3111 3113 3114 3114 3111 3111 3115 3116 3120 3124 3119 3123 3132 3133 3134 3134 3135 3135 3133 3138 3138 3138 3138 3138 3136 3136 3135 3135 3132 3129 3124 3125 3120 3118 3122 3121 3121 3122 3121
3100 3102 3103 3104 3107 3106 3107 3109 3110 3110 3109 3103 3107 3104 3109 3113 3107 3117 3120 3126 3126 3124 3128 3127 3129 3131 3131 3128 3132 3129 3131 3131 3131 3131 3125 3127 3116 3118 3116 3116 3114 3116 3118 3119 3118
3097 3098 3099 3101 3101 3103 3106 3107 3107 3109 3112 3105 3102 3104 3104 3108 3110 3110 3114 3114 3113 3116 3123 3114 3120 3122 3123 3120 3126 3121 3127 3126 3125 3123 3123 3117 3120 3113 3114 3112 3112 3109 3110 3114 3116
3094 3095 3096 3098 3098 3100 3102 3104 3106 3111 3104 3101 3101 3101 3103 3104 3104 3106 3109 3110 3109 3110 3110 3110 3112 3115 3115 3117 3119 3121 3121 3121 3121 3120 3117 3113 3118 3106 3108 3107 3106 3105 3101 3106 3109
3090 3091 3093 3093 3095 3097 3100 3102 3107 3104 3102 3101 3101 3101 3100 3101 3100 3103 3103 3103 3105 3104 3100 3102 3100 3104 3110 3110 3112 3114 3115 3113 3114 3110 3107 3108 3108 3099 3102 3101 3100 3100 3095 3099 3101
3087 3088 3089 3091 3093 3094 3096 3100 3101 3099 3100 3098 3098 3098 3098 3098 3098 3098 3097 3098 3101 3101 3099 3094 3092 3098 3102 3104 3106 3105 3107 3105 3100 3099 3101 3098 3093 3092 3092 3093 3091 3093 3095 3095 3097
3083 3085 3086 3088 3090 3091 3094 3096 3097 3098 3099 3097 3096 3094 3095 3096 3096 3095 3094 3094 3094 3096 3093 3091 3087 3088 3087 3093 3098 3095 3093 3097 3096 3095 3093 3091 3087 3085 3088 3086 3088 3090 3092 3093 3094
3080 3082 3082 3085 3087 3089 3090 3090 3093 3095 3096 3096 3097 3096 3094 3093 3092 3090 3090 3091 3092 3088 3077 3079 3076 3080 3074 3078 3080 3082 3086 3084 3084 3084 3081 3083 3081 3080 3081 3084 3084 3085 3086 3085 3088
3077 3078 3079 3081 3083 3084 3083 3084 3086 3090 3093 3095 3094 3092 3092 3091 3091 3089 3088 3086 3086 3081 3081 3077 3079 3071 3075 3068 3075 3079 3080 3079 3078 3076 3068 3074 3071 3077 3077 3079 3080 3075 3076 3079 3082
3072 3073 3074 3076 3081 3079 3078 3081 3083 3085 3087 3088 3089 3088 3088 3088 3086 3086 3084 3084 3084 3082 3078 3078 3074 3069 3067 3064 3068 3071 3074 3077 3078 3078 3071 3067 3062 3071 3071 3074 3074 3074 3074 3075 3075
3067 3066 3068 3073 3073 3073 3075 3077 3078 3080 3081 3081 3081 3083 3083 3082 3081 3081 3079 3081 3082 3081 3074 3076 3075 3071 3059 3062 3060 3062 3063 3069 3072 3071 3072 3075 3063 3063 3064 3062 3067 3069 3070 3068 3068
3061 3061 3061 3064 3066 3067 3069 3071 3072 3076 3075 3075 3075 3076 3076 3075 3076 3072 3072 3075 3076 3077 3075 3073 3073 3074 3066 3058 3058 3057 3058 3060 3062 3064 3065 3064 3059 3051 3058 3060 3061 3063 3063 3061 3062
3054 3055 3059 3059 3059 3062 3064 3064 3066 3068 3070 3071 3070 3071 3072 3069 3068 3068 3069 3069 3071 3071 3072 3069 3064 3066 3057 3055 3057 3052 3049 3049 3051 3052 3055 3046 3058 3048 3050 3056 3055 3057 3057 3059 3055
3050 3052 3053 3054 3057 3059 3058 3060 3061 3063 3065 3064 3064 3065 3066 3064 3065 3063 3059 3060 3059 3061 3063 3063 3057 3057 3045 3045 3052 3048 3040 3036 3039 3043 3042 3042 3042 3040 3044 3046 3050 3050 3044 3045 3050
3044 3046 3046 3045 3050 3052 3055 3056 3056 3057 3057 3057 3057 3058 3057 3059 3058 3054 3053 3053 3053 3054 3055 3054 3052 3053 3038 3046 3045 3040 3029 3037 3034 3035 3037 3036 3027 3036 3037 3041 3043 3040 3036 3043 3045